DMSP 5D-2 F11 DEB, 28300

Orbit data source: Space-Track

DMSP 5D-2 F11 DEB, 28300 is space debris in SSO originally from a launch on Thu, 28 Nov 1991 UTC launched from the Air Force Western Test Range (AFWTR). Debris objects in space refer to the collection of defunct objects orbiting the Earth. Examples of debris include non-operational satellites, rocket bodies, and fragments generated from explosions, collisions, or faulty payload assembly.

Loading next visibility...
Identifier
28300, 1991-082M
Orbit
SSO
Country
Flag of USUS
Related business
Manufacturer
Unknown
Mission
Spacecraft
Bus & Motor
Unknown
Mass
Unknown
Launch date (UTC)
1991-11-28 (35 years ago)
Launch vehicle
Unknown
Launch site
Air Force Western Test Range (AFWTR)
Object type
Payload
Rocket body
Debris
Shape & HBR
Unknown shape, 0.1 m
Radar Cross Section
Medium (>0.1 m² and <1 m²)

Expand to show TLE details & history
Last TLE update: 20 hours ago

TLE from 20 hours ago
0 DMSP 5D-2 F11 DEB
1 28300U 91082M   26208.37745462  .00003148  00000-0  95620-3 0  9990
2 28300  98.5321 260.8604 0009520 130.9970 290.2097 14.42819982158173
Epoch: 2026-07-27T09:03Z
TLE epoch observation values (Epoch: 2026-07-27T09:03:32.079Z)
Latitude
60.07296°
Longitude
164.89085°
Altitude
757.056 km
Speed
7.483 km/s
True Right ascension
16h 23m 20s
True Declination
59° 55' 26"
Sunlit
Object was in daylight at epoch
Visualization orbit readout
Latitude
Unknown
Longitude
Unknown
Altitude
Unknown
Speed
Unknown
Apparent Right ascension
Unknown
Apparent Declination
Unknown
Sunlit
N/A
Visualization observer readout
Local Sidereal Time
18:09:17
Azimuth
Unknown
Elevation
Unknown
Doppler factor
Unknown
Orbital elements
Apogee altitude
753.099 km
Perigee altitude
739.534 km
Semi-major axis
7,124.453 km
Eccentricity
0.00095
Inclination
98.5321°
RAAN
260.8604°
Arg. of periapsis
130.997°
True anomaly
290.10728°
Mean anomaly
290.2097°
Eccentric anomaly
290.1585°
Mean motion
3.60924 °/min
Orbital period
99.74 mins
BSTAR
0.0009562

Documentation

Showing up to 5 results
|